Location: Cedar Ridge
(38.0658°N, 120.2769°W)
Time: 21:47:00
(UTC+00:00)

CZ-4C R/B - Pass Details

Date: 10 September 2024
Orbit: 519 x 1471 km, 63.4° (Epoch: 12 October)

Event Time Altitude Azimuth Distance (km) Brightness Sun altitude
Exits shadow 12:00:11 - 314° (NW) 2,292 4.2 -19.6°
Reaches altitude 10° 12:00:57 10° 322° (NW) 2,260 4.3 -19.5°
Maximum altitude 12:01:56 11° 334° (NNW) 2,280 4.4 -19.3°
Drops below altitude 10° 12:02:58 10° 345° (NNW) 2,371 4.6 -19.1°
Sets 12:08:22 0° 23° (NNE) 3,620 6.2 -18.1°
